Regional Weather Roundup
Issued by NWS Columbia, SC

Home | Current Version | Previous Version | Text Only | Print | Product List | Glossary On
Versions: 1 2 3 4 5 6 7 8 9 10 11 12 13 14 15 16 17 18 19 20 21 22 23 24 25 26 27
000
ASUS42 KCAE 231910
RWRCAE
REGIONAL WEATHER ROUNDUP
NATIONAL WEATHER SERVICE COLUMBIA SC
300 PM EDT WED AUG 23 2017

NOTE: "FAIR" INDICATES FEW OR NO CLOUDS BELOW 12,000 FEET WITH NO
SIGNIFICANT WEATHER AND/OR OBSTRUCTIONS TO VISIBILITY.

NOT ALL STATIONS ARE QUALITY CONTROLLED BY THE NATIONAL
WEATHER SERVICE. USE DATA WITH CAUTION...ESPECIALLY
DEWPOINT OBSERVATIONS.

SCZ001>056-GAZ040-063>065-077-232000-
...UPSTATE SOUTH CAROLINA...

CITY           SKY/WX    TMP DP  RH WIND       PRES   REMARKS
ANDERSON       MOSUNNY   92  67  43 W9        29.88F HX  95
LIBERTY        MOCLDY    92  70  48 CALM      29.88F HX  98
SPARTANBURG    PTSUNNY   88  64  45 N9        29.87F
CLEMSON        PTSUNNY   89  70  53 CALM      29.89F
GREENVILLE     MOSUNNY   90  68  48 N12       29.91F
GREENWOOD      MOSUNNY   91  70  49 W7G16     29.89F HX  96
GREER          PTSUNNY   88  69  53 N7        29.89S
ROCK HILL      PTSUNNY   92  73  53 VRB3      29.86F HX 100
CHESTER        PTCLDY    91  61  35 W3        29.86F
LAURENS        PTCLDY    91  66  43 SW8       29.87F


...CENTRAL SOUTH CAROLINA...

CITY           SKY/WX    TMP DP  RH WIND       PRES   REMARKS
COLUMBIA APT   LGT RAIN  86  75  69 W6        29.85F HX  95
COLUMBIA OWENS PTSUNNY   93  68  43 W7        29.86F HX  97
MCENTIRE ANGB  MOSUNNY   96  69  41 SW8       29.85F HX 102
ORANGEBURG     MOSUNNY   96  69  41 W10       29.86F HX 102
SUMTER SHAW    MOSUNNY   97  67  37 SW16      29.82F HX 101
NEWBERRY       PTCLDY    93  68  43 SW6       29.89F HX  97
AIKEN          FAIR      95  70  43 SW12      29.91F HX 101
BARNWELL       FAIR      97  73  46 W9G16     29.87F HX 107
MANNING        FAIR      91  72  52 CALM      29.87F HX  98
CAMDEN         FAIR      95  66  38 S10       29.85F HX  98
LANCASTER      CLEAR     93  66  40 SW6       29.85F HX  96
WINNSBORO      PTCLDY    91  68  46 W7        29.86F HX  95


...EASTERN AND COASTAL SOUTH CAROLINA...

CITY           SKY/WX    TMP DP  RH WIND       PRES   REMARKS
N MYRTLE BCH   SUNNY     87  78  74 S14       29.87F HX 100
CONWAY         FAIR      91  75  59 S8        29.86F HAZE    HX 102
MARION         FAIR      91  70  49 S8G16     29.85F HX  97
HARTSVILLE     MOCLDY    90  70  51 SW3       29.84F HX  95
FLORENCE       MOSUNNY   94  71  47 VRB6      29.84F HX 101
DARLINGTON     SUNNY     96  71  44 SW13      29.84F HX 103
CHARLESTON APT MOSUNNY   93  75  55 SW5       29.88F HX 104
MOUNT PLEASANT FAIR      91  79  66 S10       29.88F HX 107
WALTERBORO     PTCLDY    91  73  55 S7        29.89F HX 100
BEAUFORT       MOSUNNY   94  76  55 CALM      29.89F HX 106


...EASTERN GEORGIA...

CITY           SKY/WX    TMP DP  RH WIND       PRES   REMARKS
AUGUSTA BUSH F MOSUNNY   97  72  44 W12       29.86F HX 105
AUGUSTA DANIEL MOSUNNY   95  68  41 SW9       29.88F HX  99
THOMSON        SUNNY     92  71  50 N9        29.94F HX  98
WASHINGTON     FAIR     N/A N/A N/A NW5       29.90F
CLAXTON        MOCLDY    94  73  49 SW3       29.89F HX 102
SYLVANIA       PTCLDY    94  76  55 W7        29.89F HX 107
STATESBORO     SUNNY     95  67  39 SW6       29.88F HX  98
SAVANNAH       PTSUNNY   94  74  52 S8        29.89F HX 104


...SOUTHERN NORTH CAROLINA...

CITY           SKY/WX    TMP DP  RH WIND       PRES   REMARKS
CHARLOTTE      PTSUNNY   91  71  51 W6        29.87F THUNDER HX  97
MONROE         SUNNY     91  69  48 SW8       29.85F HX  96
WADESBORO      MOCLDY    95  62  33 SW6       29.83F HX  96
ROCKINGHAM     PTCLDY    95  68  41 W12G17    29.84F HX  99
RUTHERFORDTON  MOSUNNY   84  71  63 NW5       29.92F
ASHEVILLE      SUNNY     82  63  52 N14G24    29.99F

$$




USA.gov is the U.S. government's official web portal to all federal, state and local government web resources and services.